Time,TemperatureF,DewpointF,PressureIn,WindDirection,WindDirectionDegrees,WindSpeedMPH,WindSpeedGustMPH,Humidity,HourlyPrecipIn,Conditions,Clouds,dailyrainin,SolarRadiationWatts/m^2,SoftwareType,DateUTC
2013-08-06 00:01:00,72.0,55.4,30.03,NNW,338,0.0,0.0,56,0.00,CLR,,0.00,0.0,WeatherDisplay:10.37,2013-08-05 22:01:00,
2013-08-06 00:07:00,71.8,54.7,30.03,NNW,338,0.0,0.0,55,0.00,CLR,,0.00,0.0,WeatherDisplay:10.37,2013-08-05 22:07:00,
2013-08-06 00:12:00,71.8,55.2,30.03,NNW,338,0.0,0.0,56,0.00,CLR,,0.00,0.0,WeatherDisplay:10.37,2013-08-05 22:12:00,
2013-08-06 00:18:00,71.8,55.2,30.03,NNW,338,0.0,0.0,56,0.00,CLR,,0.00,0.0,WeatherDisplay:10.37,2013-08-05 22:18:00,
2013-08-06 00:23:00,71.8,55.2,30.03,NNW,338,0.0,0.0,56,0.00,CLR,,0.00,0.0,WeatherDisplay:10.37,2013-08-05 22:23:00,
2013-08-06 00:28:00,71.6,55.1,30.03,NNW,338,0.0,0.0,56,0.00,CLR,,0.00,0.0,WeatherDisplay:10.37,2013-08-05 22:28:00,
2013-08-06 00:34:00,71.4,55.4,30.03,NNW,338,1.2,1.2,57,0.00,CLR,,0.00,0.0,WeatherDisplay:10.37,2013-08-05 22:34:00,
2013-08-06 00:39:00,71.4,55.9,30.06,NNW,338,0.0,0.0,58,0.00,CLR,,0.00,0.0,WeatherDisplay:10.37,2013-08-05 22:39:00,
2013-08-06 00:44:00,71.2,55.7,30.06,NNW,338,1.4,0.0,58,0.00,CLR,,0.00,0.0,WeatherDisplay:10.37,2013-08-05 22:44:00,
2013-08-06 00:49:00,71.2,55.7,30.06,NNW,338,0.0,0.0,58,0.00,CLR,,0.00,0.0,WeatherDisplay:10.37,2013-08-05 22:49:00,
2013-08-06 00:55:00,71.1,55.5,30.06,NNW,338,0.0,0.0,58,0.00,CLR,,0.00,0.0,WeatherDisplay:10.37,2013-08-05 22:55:00,
2013-08-06 01:00:00,70.9,55.4,30.06,NNW,338,0.0,0.0,58,0.00,CLR,,0.00,0.0,WeatherDisplay:10.37,2013-08-05 23:00:00,
2013-08-06 01:05:00,70.7,55.2,30.06,NNW,338,0.0,0.0,58,0.00,CLR,,0.00,0.0,WeatherDisplay:10.37,2013-08-05 23:05:00,
2013-08-06 01:10:00,70.7,55.7,30.06,NNW,338,0.0,0.0,59,0.00,CLR,,0.00,0.0,WeatherDisplay:10.37,2013-08-05 23:10:00,
2013-08-06 01:15:00,70.5,55.5,30.06,NNW,338,0.0,0.0,59,0.00,CLR,,0.00,0.0,WeatherDisplay:10.37,2013-08-05 23:15:00,
2013-08-06 01:21:00,70.3,55.3,30.06,NNW,338,0.0,0.0,59,0.00,CLR,,0.00,0.0,WeatherDisplay:10.37,2013-08-05 23:21:00,
2013-08-06 01:27:00,70.3,55.3,30.06,NNW,338,0.0,0.0,59,0.00,CLR,,0.00,0.0,WeatherDisplay:10.37,2013-08-05 23:27:00,
2013-08-06 01:32:00,70.2,55.6,30.06,NNW,338,0.0,0.0,60,0.00,CLR,,0.00,0.0,WeatherDisplay:10.37,2013-08-05 23:32:00,
2013-08-06 01:37:00,70.0,55.5,30.06,NNW,338,0.0,0.0,60,0.00,CLR,,0.00,0.0,WeatherDisplay:10.37,2013-08-05 23:37:00,
2013-08-06 01:42:00,70.0,55.9,30.06,NNW,338,0.0,0.0,61,0.00,CLR,,0.00,0.0,WeatherDisplay:10.37,2013-08-05 23:42:00,
2013-08-06 01:47:00,70.0,55.9,30.06,NNW,338,0.0,0.0,61,0.00,CLR,,0.00,0.0,WeatherDisplay:10.37,2013-08-05 23:47:00,
2013-08-06 01:52:00,69.8,55.7,30.03,NNW,338,0.0,0.0,61,0.00,CLR,,0.00,0.0,WeatherDisplay:10.37,2013-08-05 23:52:00,
2013-08-06 01:58:00,69.8,55.7,30.03,NNW,338,0.0,0.0,61,0.00,CLR,,0.00,0.0,WeatherDisplay:10.37,2013-08-05 23:58:00,
2013-08-06 02:03:00,70.0,55.9,30.03,NNW,338,0.0,0.0,61,0.00,CLR,,0.00,0.0,WeatherDisplay:10.37,2013-08-06 00:03:00,
2013-08-06 02:08:00,70.0,55.9,30.03,NNW,338,0.0,0.0,61,0.00,CLR,,0.00,0.0,WeatherDisplay:10.37,2013-08-06 00:08:00,
2013-08-06 02:13:00,70.0,55.9,30.03,NNW,338,0.0,0.0,61,0.00,CLR,,0.00,0.0,WeatherDisplay:10.37,2013-08-06 00:13:00,
2013-08-06 02:18:00,70.0,55.9,30.03,NNW,338,0.0,0.0,61,0.00,CLR,,0.00,0.0,WeatherDisplay:10.37,2013-08-06 00:18:00,
2013-08-06 02:23:00,70.0,55.9,30.03,NNW,338,0.0,0.0,61,0.00,CLR,,0.00,0.0,WeatherDisplay:10.37,2013-08-06 00:23:00,
2013-08-06 02:28:00,69.8,55.7,30.03,NNW,338,0.0,0.0,61,0.00,CLR,,0.00,0.0,WeatherDisplay:10.37,2013-08-06 00:28:00,
2013-08-06 02:34:00,69.8,55.7,30.03,NNW,338,0.0,0.0,61,0.00,CLR,,0.00,0.0,WeatherDisplay:10.37,2013-08-06 00:34:00,
2013-08-06 02:39:00,69.6,56.0,30.03,NNW,338,0.0,0.0,62,0.00,CLR,,0.00,0.0,WeatherDisplay:10.37,2013-08-06 00:39:00,
2013-08-06 02:44:00,69.6,56.0,30.03,NNW,338,0.0,0.0,62,0.00,CLR,,0.00,0.0,WeatherDisplay:10.37,2013-08-06 00:44:00,
2013-08-06 02:50:00,69.4,55.9,30.03,NNW,338,0.0,0.0,62,0.00,CLR,,0.00,0.0,WeatherDisplay:10.37,2013-08-06 00:50:00,
2013-08-06 02:55:00,69.4,55.9,30.03,NNW,338,0.0,0.0,62,0.00,CLR,,0.00,0.0,WeatherDisplay:10.37,2013-08-06 00:55:00,
2013-08-06 03:00:00,69.3,55.7,30.03,NNW,338,0.0,0.0,62,0.00,CLR,,0.00,0.0,WeatherDisplay:10.37,2013-08-06 01:00:00,
2013-08-06 03:06:00,69.3,55.7,30.03,NNW,338,0.0,0.0,62,0.00,CLR,,0.00,0.0,WeatherDisplay:10.37,2013-08-06 01:06:00,
2013-08-06 03:11:00,69.1,56.0,30.03,NNW,338,0.0,0.0,63,0.00,CLR,,0.00,0.0,WeatherDisplay:10.37,2013-08-06 01:11:00,
2013-08-06 03:17:00,68.9,56.2,30.03,NNW,338,0.0,0.0,64,0.00,CLR,,0.00,0.0,WeatherDisplay:10.37,2013-08-06 01:17:00,
2013-08-06 03:22:00,68.9,55.8,30.03,NNE,22,0.0,0.0,63,0.00,CLR,,0.00,0.0,WeatherDisplay:10.37,2013-08-06 01:22:00,
2013-08-06 03:27:00,68.9,56.2,30.03,NNW,338,0.0,0.0,64,0.00,CLR,,0.00,0.0,WeatherDisplay:10.37,2013-08-06 01:27:00,
2013-08-06 03:33:00,68.7,56.0,30.03,NNW,338,0.0,0.0,64,0.00,CLR,,0.00,0.0,WeatherDisplay:10.37,2013-08-06 01:33:00,
2013-08-06 03:38:00,68.7,56.0,30.03,NE,45,1.2,0.0,64,0.00,CLR,,0.00,0.0,WeatherDisplay:10.37,2013-08-06 01:38:00,
2013-08-06 03:44:00,68.7,56.0,30.03,NE,45,0.0,0.0,64,0.00,CLR,,0.00,0.0,WeatherDisplay:10.37,2013-08-06 01:44:00,
2013-08-06 03:50:00,68.7,56.0,30.03,NNE,22,0.0,0.0,64,0.00,CLR,,0.00,0.0,WeatherDisplay:10.37,2013-08-06 01:50:00,
2013-08-06 03:55:00,68.7,56.5,30.03,NNE,22,0.0,0.0,65,0.00,CLR,,0.00,0.0,WeatherDisplay:10.37,2013-08-06 01:55:00,
2013-08-06 04:00:00,68.7,56.0,30.03,NNE,22,0.0,0.0,64,0.00,CLR,,0.00,0.0,WeatherDisplay:10.37,2013-08-06 02:00:00,
2013-08-06 04:05:00,68.7,56.0,30.03,West,270,0.0,0.0,64,0.00,CLR,,0.00,0.0,WeatherDisplay:10.37,2013-08-06 02:05:00,
2013-08-06 04:10:00,68.7,56.0,30.03,West,270,0.0,0.0,64,0.00,CLR,,0.00,0.0,WeatherDisplay:10.37,2013-08-06 02:10:00,
2013-08-06 04:15:00,68.5,55.9,30.03,West,270,0.0,0.0,64,0.00,CLR,,0.00,0.0,WeatherDisplay:10.37,2013-08-06 02:15:00,
2013-08-06 04:21:00,68.5,55.9,30.06,West,270,0.0,0.0,64,0.00,CLR,,0.00,0.0,WeatherDisplay:10.37,2013-08-06 02:21:00,
2013-08-06 04:27:00,68.4,56.1,30.06,NE,45,2.3,2.3,65,0.00,CLR,,0.00,0.0,WeatherDisplay:10.37,2013-08-06 02:27:00,
2013-08-06 04:32:00,68.4,56.1,30.06,NNE,22,0.0,0.0,65,0.00,CLR,,0.00,0.0,WeatherDisplay:10.37,2013-08-06 02:32:00,
2013-08-06 04:37:00,68.4,56.1,30.06,ENE,68,1.2,0.0,65,0.00,CLR,,0.00,0.0,WeatherDisplay:10.37,2013-08-06 02:37:00,
2013-08-06 04:42:00,68.4,56.1,30.06,NNE,22,0.0,0.0,65,0.00,CLR,,0.00,0.0,WeatherDisplay:10.37,2013-08-06 02:42:00,
2013-08-06 04:47:00,68.4,56.1,30.06,SE,135,0.0,0.0,65,0.00,CLR,,0.00,0.0,WeatherDisplay:10.37,2013-08-06 02:47:00,
2013-08-06 04:52:00,68.5,56.3,30.03,ESE,112,0.0,0.0,65,0.00,CLR,,0.00,0.0,WeatherDisplay:10.37,2013-08-06 02:52:00,
2013-08-06 04:58:00,68.4,56.1,30.03,ESE,112,0.0,0.0,65,0.00,CLR,,0.00,0.0,WeatherDisplay:10.37,2013-08-06 02:58:00,
2013-08-06 05:03:00,68.4,56.6,30.03,East,90,0.0,0.0,66,0.00,OVC,,0.00,0.0,WeatherDisplay:10.37,2013-08-06 03:03:00,
2013-08-06 05:08:00,68.2,56.4,30.06,NNE,22,0.0,0.0,66,0.00,OVC,,0.00,0.0,WeatherDisplay:10.37,2013-08-06 03:08:00,
2013-08-06 05:13:00,68.0,56.2,30.06,NNE,22,0.0,0.0,66,0.00,OVC,,0.00,0.0,WeatherDisplay:10.37,2013-08-06 03:13:00,
2013-08-06 05:18:00,68.0,56.2,30.06,ENE,68,2.3,2.3,66,0.00,OVC,,0.00,0.0,WeatherDisplay:10.37,2013-08-06 03:18:00,
2013-08-06 05:23:00,67.8,56.5,30.06,ENE,68,2.3,2.3,67,0.00,OVC,,0.00,0.0,WeatherDisplay:10.37,2013-08-06 03:23:00,
2013-08-06 05:29:00,67.8,56.5,30.06,NE,45,1.2,0.0,67,0.00,OVC,,0.00,0.0,WeatherDisplay:10.37,2013-08-06 03:29:00,
2013-08-06 05:34:00,67.8,56.5,30.06,NE,45,0.0,0.0,67,0.00,OVC,,0.00,0.0,WeatherDisplay:10.37,2013-08-06 03:34:00,
2013-08-06 05:39:00,67.8,56.5,30.06,ENE,68,2.3,2.3,67,0.00,OVC,,0.00,0.7,WeatherDisplay:10.37,2013-08-06 03:39:00,
2013-08-06 05:44:00,67.8,56.5,30.06,NNE,22,0.0,0.0,67,0.00,OVC,,0.00,3.0,WeatherDisplay:10.37,2013-08-06 03:44:00,
2013-08-06 05:49:00,67.8,56.5,30.06,East,90,2.3,2.3,67,0.00,OVC,,0.00,5.8,WeatherDisplay:10.37,2013-08-06 03:49:00,
2013-08-06 05:55:00,67.8,56.5,30.06,ENE,68,3.5,3.5,67,0.00,OVC,,0.00,8.1,WeatherDisplay:10.37,2013-08-06 03:55:00,
2013-08-06 06:00:00,68.2,56.8,30.06,NE,45,3.5,3.5,67,0.00,OVC,,0.00,10.6,WeatherDisplay:10.37,2013-08-06 04:00:00,
2013-08-06 06:01:00,68.4,57.0,30.06,ESE,112,3.5,3.5,67,0.00,OVC,,0.00,11.1,WeatherDisplay:10.37,2013-08-06 04:01:00,
2013-08-06 06:06:00,68.9,57.1,30.06,ESE,112,2.2,0.0,66,0.00,OVC,,0.00,13.5,WeatherDisplay:10.37,2013-08-06 04:06:00,
2013-08-06 06:11:00,69.3,57.4,30.06,ESE,112,2.3,2.4,66,0.00,OVC,,0.00,16.0,WeatherDisplay:10.37,2013-08-06 04:11:00,
2013-08-06 06:16:00,69.4,57.6,30.06,SE,135,3.1,3.1,66,0.00,OVC,,0.00,18.5,WeatherDisplay:10.37,2013-08-06 04:16:00,
2013-08-06 06:21:00,69.8,57.5,30.06,SSE,158,3.5,3.5,65,0.00,OVC,,0.00,21.0,WeatherDisplay:10.37,2013-08-06 04:21:00,
2013-08-06 06:26:00,70.0,57.7,30.06,ESE,112,4.6,4.6,65,0.00,OVC,,0.00,23.6,WeatherDisplay:10.37,2013-08-06 04:26:00,
2013-08-06 06:31:00,70.2,57.4,30.06,ESE,112,3.6,0.0,64,0.00,OVC,,0.00,26.1,WeatherDisplay:10.37,2013-08-06 04:31:00,
2013-08-06 06:36:00,70.3,57.6,30.06,NE,45,2.3,2.3,64,0.00,OVC,,0.00,28.7,WeatherDisplay:10.37,2013-08-06 04:36:00,
2013-08-06 06:41:00,70.7,57.9,30.06,ESE,112,3.3,3.3,64,0.00,OVC,,0.00,31.4,WeatherDisplay:10.37,2013-08-06 04:41:00,
2013-08-06 06:46:00,70.9,58.1,30.06,ENE,68,3.5,3.5,64,0.00,OVC,,0.00,34.0,WeatherDisplay:10.37,2013-08-06 04:46:00,
2013-08-06 06:51:00,71.2,58.4,30.06,ENE,68,4.6,0.0,64,0.00,OVC,,0.00,36.8,WeatherDisplay:10.37,2013-08-06 04:51:00,
2013-08-06 06:56:00,71.4,58.6,30.06,ESE,112,2.3,2.3,64,0.00,OVC,,0.00,39.4,WeatherDisplay:10.37,2013-08-06 04:56:00,
2013-08-06 07:01:00,71.6,58.3,30.06,NNE,22,3.5,3.5,63,0.00,OVC,,0.00,42.1,WeatherDisplay:10.37,2013-08-06 05:01:00,
2013-08-06 07:06:00,72.0,58.7,30.06,NNW,338,2.9,2.9,63,0.00,OVC,,0.00,44.9,WeatherDisplay:10.37,2013-08-06 05:06:00,
2013-08-06 07:11:00,72.1,58.8,30.06,East,90,3.5,3.5,63,0.00,OVC,,0.00,47.5,WeatherDisplay:10.37,2013-08-06 05:11:00,
2013-08-06 07:16:00,72.3,59.0,30.06,NNE,22,3.1,3.1,63,0.00,OVC,,0.00,50.3,WeatherDisplay:10.37,2013-08-06 05:16:00,
2013-08-06 07:21:00,72.7,59.4,30.06,ESE,112,4.3,4.3,63,0.00,OVC,,0.00,53.1,WeatherDisplay:10.37,2013-08-06 05:21:00,
2013-08-06 07:26:00,73.0,59.7,30.06,NNE,22,3.5,3.5,63,0.00,OVC,,0.00,55.9,WeatherDisplay:10.37,2013-08-06 05:26:00,
2013-08-06 07:31:00,73.4,60.0,30.06,SSE,158,3.5,3.5,63,0.00,OVC,,0.00,58.7,WeatherDisplay:10.37,2013-08-06 05:31:00,
2013-08-06 07:36:00,73.6,59.8,30.06,ENE,68,4.6,4.6,62,0.00,OVC,,0.00,62.0,WeatherDisplay:10.37,2013-08-06 05:36:00,
2013-08-06 07:41:00,73.8,59.9,30.06,ESE,112,4.6,4.6,62,0.00,OVC,,0.00,64.3,WeatherDisplay:10.37,2013-08-06 05:41:00,
2013-08-06 07:46:00,73.9,60.5,30.06,ESE,112,4.6,4.6,63,0.00,OVC,,0.00,67.2,WeatherDisplay:10.37,2013-08-06 05:46:00,
2013-08-06 07:51:00,74.5,60.6,30.06,ESE,112,4.6,4.6,62,0.00,OVC,,0.00,70.0,WeatherDisplay:10.37,2013-08-06 05:51:00,
2013-08-06 07:56:00,74.7,60.8,30.06,ESE,112,5.8,5.8,62,0.00,OVC,,0.00,72.8,WeatherDisplay:10.37,2013-08-06 05:56:00,
2013-08-06 08:01:00,75.0,61.1,30.06,ESE,112,4.6,4.6,62,0.00,OVC,,0.00,75.6,WeatherDisplay:10.37,2013-08-06 06:01:00,
2013-08-06 08:06:00,75.4,61.0,30.06,NNE,22,2.6,2.6,61,0.00,OVC,,0.00,78.5,WeatherDisplay:10.37,2013-08-06 06:06:00,
2013-08-06 08:11:00,75.7,61.3,30.06,NNE,22,3.5,3.5,61,0.00,OVC,,0.00,81.3,WeatherDisplay:10.37,2013-08-06 06:11:00,
2013-08-06 08:16:00,75.9,61.0,30.06,ESE,112,2.9,2.9,60,0.00,OVC,,0.00,84.2,WeatherDisplay:10.37,2013-08-06 06:16:00,
2013-08-06 08:21:00,76.3,61.4,30.06,WNW,292,3.5,3.5,60,0.00,OVC,,0.00,87.5,WeatherDisplay:10.37,2013-08-06 06:21:00,
2013-08-06 08:26:00,76.6,61.7,30.06,ESE,112,3.3,3.3,60,0.00,OVC,,0.00,89.8,WeatherDisplay:10.37,2013-08-06 06:26:00,
2013-08-06 08:31:00,77.0,61.6,30.06,NE,45,2.3,2.3,59,0.00,OVC,,0.00,92.6,WeatherDisplay:10.37,2013-08-06 06:31:00,
2013-08-06 08:36:00,77.4,61.4,30.06,NNW,338,3.5,3.5,58,0.00,OVC,,0.00,96.0,WeatherDisplay:10.37,2013-08-06 06:36:00,
2013-08-06 08:41:00,77.7,62.2,30.06,East,90,3.6,3.6,59,0.00,OVC,,0.00,98.2,WeatherDisplay:10.37,2013-08-06 06:41:00,
2013-08-06 08:46:00,78.1,62.1,30.06,ESE,112,3.6,3.6,58,0.00,OVC,,0.00,101.0,WeatherDisplay:10.37,2013-08-06 06:46:00,
2013-08-06 08:51:00,78.4,61.9,30.06,ESE,112,2.3,2.3,57,0.00,OVC,,0.00,104.3,WeatherDisplay:10.37,2013-08-06 06:51:00,
2013-08-06 08:56:00,78.8,61.8,30.06,SE,135,4.0,4.0,56,0.00,OVC,,0.00,106.4,WeatherDisplay:10.37,2013-08-06 06:56:00,
2013-08-06 09:01:00,79.3,61.8,30.06,ESE,112,4.6,4.6,55,0.00,OVC,,0.00,109.1,WeatherDisplay:10.37,2013-08-06 07:01:00,
2013-08-06 09:06:00,79.7,62.1,30.06,ESE,112,4.7,4.7,55,0.00,OVC,,0.00,112.4,WeatherDisplay:10.37,2013-08-06 07:06:00,
2013-08-06 09:11:00,80.1,61.9,30.06,ESE,112,4.6,4.6,54,0.00,OVC,,0.00,114.5,WeatherDisplay:10.37,2013-08-06 07:11:00,
2013-08-06 09:16:00,80.2,61.6,30.06,ESE,112,3.5,3.5,53,0.00,OVC,,0.00,117.2,WeatherDisplay:10.37,2013-08-06 07:16:00,
2013-08-06 09:21:00,80.8,62.1,30.06,SSE,158,2.3,2.3,53,0.00,OVC,,0.00,119.8,WeatherDisplay:10.37,2013-08-06 07:21:00,
2013-08-06 09:26:00,81.1,62.4,30.06,NNW,338,2.3,2.3,53,0.00,OVC,,0.00,122.4,WeatherDisplay:10.37,2013-08-06 07:26:00,
2013-08-06 09:31:00,81.5,62.2,30.06,SSE,158,1.6,1.6,52,0.00,OVC,,0.00,124.9,WeatherDisplay:10.37,2013-08-06 07:31:00,
2013-08-06 09:36:00,81.7,61.8,30.06,WSW,248,2.3,2.3,51,0.00,OVC,,0.00,128.0,WeatherDisplay:10.37,2013-08-06 07:36:00,
2013-08-06 09:41:00,82.2,61.7,30.06,SE,135,2.4,2.4,50,0.00,OVC,,0.00,130.0,WeatherDisplay:10.37,2013-08-06 07:41:00,
2013-08-06 09:46:00,82.4,61.9,30.06,ENE,68,2.4,2.4,50,0.00,OVC,,0.00,133.0,WeatherDisplay:10.37,2013-08-06 07:46:00,
2013-08-06 09:51:00,82.8,61.1,30.06,NW,315,3.5,3.5,48,0.00,OVC,,0.00,135.0,WeatherDisplay:10.37,2013-08-06 07:51:00,
2013-08-06 09:56:00,82.9,61.2,30.06,ENE,68,1.2,1.4,48,0.00,OVC,,0.00,137.3,WeatherDisplay:10.37,2013-08-06 07:56:00,
2013-08-06 10:01:00,83.3,61.6,30.06,SW,225,3.5,3.5,48,0.00,OVC,,0.00,140.1,WeatherDisplay:10.37,2013-08-06 08:01:00,
2013-08-06 10:06:00,83.7,61.9,30.06,SSE,158,2.3,2.9,48,0.00,OVC,,0.00,142.1,WeatherDisplay:10.37,2013-08-06 08:06:00,
2013-08-06 10:11:00,84.0,62.2,30.06,North,0,2.6,2.6,48,0.00,OVC,,0.00,144.2,WeatherDisplay:10.37,2013-08-06 08:11:00,
2013-08-06 10:16:00,84.2,61.8,30.06,ENE,68,3.5,3.5,47,0.00,OVC,,0.00,146.5,WeatherDisplay:10.37,2013-08-06 08:16:00,
2013-08-06 10:21:00,84.6,61.5,30.06,West,270,1.2,0.0,46,0.00,OVC,,0.00,148.7,WeatherDisplay:10.37,2013-08-06 08:21:00,
2013-08-06 10:26:00,84.9,61.8,30.06,NE,45,5.8,5.8,46,0.00,OVC,,0.00,151.3,WeatherDisplay:10.37,2013-08-06 08:26:00,
2013-08-06 10:31:00,85.1,61.4,30.06,ESE,112,3.6,3.6,45,0.00,OVC,,0.00,153.0,WeatherDisplay:10.37,2013-08-06 08:31:00,
2013-08-06 10:36:00,85.5,61.7,30.03,WSW,248,2.3,2.3,45,0.00,OVC,,0.00,154.9,WeatherDisplay:10.37,2013-08-06 08:36:00,
2013-08-06 10:41:00,86.0,62.2,30.03,WSW,248,2.9,2.9,45,0.00,OVC,,0.00,157.4,WeatherDisplay:10.37,2013-08-06 08:41:00,
2013-08-06 10:46:00,86.2,61.7,30.03,ESE,112,4.6,4.6,44,0.00,OVC,,0.00,159.2,WeatherDisplay:10.37,2013-08-06 08:46:00,
2013-08-06 10:51:00,86.5,62.0,30.03,SSE,158,2.3,2.3,44,0.00,OVC,,0.00,160.7,WeatherDisplay:10.37,2013-08-06 08:51:00,
2013-08-06 10:56:00,86.9,61.7,30.03,WSW,248,3.5,3.5,43,0.00,OVC,,0.00,162.5,WeatherDisplay:10.37,2013-08-06 08:56:00,
2013-08-06 11:01:00,87.1,61.9,30.03,NNE,22,2.9,2.9,43,0.00,OVC,,0.00,164.3,WeatherDisplay:10.37,2013-08-06 09:01:00,
2013-08-06 11:06:00,87.1,61.2,30.03,SSW,202,2.3,2.3,42,0.00,OVC,,0.00,166.0,WeatherDisplay:10.37,2013-08-06 09:06:00,
2013-08-06 11:11:00,87.3,62.0,30.03,South,180,3.5,3.5,43,0.00,OVC,,0.00,167.6,WeatherDisplay:10.37,2013-08-06 09:11:00,
2013-08-06 11:16:00,87.6,61.7,30.03,SSW,202,4.6,4.6,42,0.00,OVC,,0.00,169.3,WeatherDisplay:10.37,2013-08-06 09:16:00,
2013-08-06 11:21:00,88.0,62.0,30.00,West,270,3.5,3.5,42,0.00,OVC,,0.00,171.1,WeatherDisplay:10.37,2013-08-06 09:21:00,
2013-08-06 11:26:00,88.2,61.5,30.00,WSW,248,4.6,4.6,41,0.00,OVC,,0.00,172.3,WeatherDisplay:10.37,2013-08-06 09:26:00,
2013-08-06 11:31:00,88.5,61.8,30.00,SE,135,3.5,3.5,41,0.00,OVC,,0.00,173.6,WeatherDisplay:10.37,2013-08-06 09:31:00,
2013-08-06 11:36:00,89.1,62.3,30.03,WSW,248,3.3,3.3,41,0.00,OVC,,0.00,175.2,WeatherDisplay:10.37,2013-08-06 09:36:00,
2013-08-06 11:41:00,89.4,62.6,30.03,SSE,158,4.6,4.6,41,0.00,OVC,,0.00,176.2,WeatherDisplay:10.37,2013-08-06 09:41:00,
2013-08-06 11:46:00,90.0,62.4,30.03,West,270,4.6,4.6,40,0.00,OVC,,0.00,177.4,WeatherDisplay:10.37,2013-08-06 09:46:00,
2013-08-06 11:51:00,90.1,62.6,30.03,WNW,292,2.3,0.0,40,0.00,OVC,,0.00,178.9,WeatherDisplay:10.37,2013-08-06 09:51:00,
2013-08-06 11:56:00,90.1,61.8,30.03,South,180,2.3,2.3,39,0.00,OVC,,0.00,179.8,WeatherDisplay:10.37,2013-08-06 09:56:00,
2013-08-06 12:01:00,90.3,62.0,30.03,ESE,112,4.0,4.0,39,0.00,OVC,,0.00,180.7,WeatherDisplay:10.37,2013-08-06 10:01:00,
2013-08-06 12:06:00,90.0,61.7,30.03,ESE,112,4.6,4.6,39,0.00,OVC,,0.00,181.5,WeatherDisplay:10.37,2013-08-06 10:06:00,
2013-08-06 12:11:00,90.0,60.9,30.03,SSW,202,2.3,2.3,38,0.00,OVC,,0.00,182.3,WeatherDisplay:10.37,2013-08-06 10:11:00,
2013-08-06 12:16:00,90.0,60.9,30.03,WSW,248,2.6,2.6,38,0.00,OVC,,0.00,183.2,WeatherDisplay:10.37,2013-08-06 10:16:00,
2013-08-06 12:21:00,90.1,61.1,30.03,WSW,248,4.6,0.0,38,0.00,OVC,,0.00,184.0,WeatherDisplay:10.37,2013-08-06 10:21:00,
2013-08-06 12:26:00,90.1,61.1,30.03,SSW,202,9.2,9.2,38,0.00,OVC,,0.00,184.6,WeatherDisplay:10.37,2013-08-06 10:26:00,
2013-08-06 12:31:00,90.5,61.4,30.03,WSW,248,4.6,4.6,38,0.00,OVC,,0.00,185.0,WeatherDisplay:10.37,2013-08-06 10:31:00,
2013-08-06 12:36:00,90.7,61.6,30.03,ESE,112,4.0,4.0,38,0.00,OVC,,0.00,185.5,WeatherDisplay:10.37,2013-08-06 10:36:00,
2013-08-06 12:41:00,90.7,61.6,30.03,ESE,112,3.8,3.8,38,0.00,OVC,,0.00,186.0,WeatherDisplay:10.37,2013-08-06 10:41:00,
2013-08-06 12:46:00,90.7,61.6,30.03,WSW,248,3.5,3.5,38,0.00,OVC,,0.00,186.3,WeatherDisplay:10.37,2013-08-06 10:46:00,
2013-08-06 12:51:00,90.9,61.7,30.03,SSW,202,3.3,3.3,38,0.00,OVC,,0.00,186.6,WeatherDisplay:10.37,2013-08-06 10:51:00,
2013-08-06 12:56:00,90.9,61.0,30.03,SSW,202,3.1,0.0,37,0.00,OVC,,0.00,186.8,WeatherDisplay:10.37,2013-08-06 10:56:00,
2013-08-06 13:01:00,91.0,61.1,30.03,SSW,202,5.8,5.8,37,0.00,OVC,,0.00,186.8,WeatherDisplay:10.37,2013-08-06 11:01:00,
2013-08-06 13:06:00,91.4,59.1,30.00,SSW,202,5.8,5.8,34,0.00,OVC,,0.00,186.8,WeatherDisplay:10.37,2013-08-06 11:06:00,
2013-08-06 13:11:00,91.6,60.9,30.00,SE,135,5.6,5.6,36,0.00,OVC,,0.00,186.8,WeatherDisplay:10.37,2013-08-06 11:11:00,
2013-08-06 13:16:00,91.9,60.4,30.00,SSW,202,4.6,4.6,35,0.00,OVC,,0.00,186.8,WeatherDisplay:10.37,2013-08-06 11:16:00,
2013-08-06 13:21:00,91.9,59.6,30.00,SSW,202,3.6,3.6,34,0.00,OVC,,0.00,186.4,WeatherDisplay:10.37,2013-08-06 11:21:00,
2013-08-06 13:26:00,92.1,61.3,30.00,South,180,3.5,3.5,36,0.00,OVC,,0.00,186.1,WeatherDisplay:10.37,2013-08-06 11:26:00,
2013-08-06 13:31:00,92.1,60.5,30.00,ENE,68,2.4,2.4,35,0.00,OVC,,0.00,186.0,WeatherDisplay:10.37,2013-08-06 11:31:00,
2013-08-06 13:36:00,92.1,60.5,29.97,East,90,7.8,7.8,35,0.00,OVC,,0.00,185.5,WeatherDisplay:10.37,2013-08-06 11:36:00,
2013-08-06 13:41:00,92.3,60.7,29.97,ENE,68,5.8,5.8,35,0.00,OVC,,0.00,185.0,WeatherDisplay:10.37,2013-08-06 11:41:00,
2013-08-06 13:46:00,91.9,59.6,29.97,ESE,112,4.6,4.6,34,0.00,OVC,,0.00,184.5,WeatherDisplay:10.37,2013-08-06 11:46:00,
2013-08-06 13:51:00,92.1,60.5,29.97,ENE,68,5.8,5.8,35,0.00,OVC,,0.00,183.8,WeatherDisplay:10.37,2013-08-06 11:51:00,
2013-08-06 13:56:00,92.3,60.7,29.97,ESE,112,4.6,4.6,35,0.00,OVC,,0.00,183.0,WeatherDisplay:10.37,2013-08-06 11:56:00,
2013-08-06 14:01:00,92.5,60.0,29.97,SSE,158,8.1,8.1,34,0.00,OVC,,0.00,182.3,WeatherDisplay:10.37,2013-08-06 12:01:00,
2013-08-06 14:06:00,92.5,60.8,29.97,SSW,202,4.6,4.6,35,0.00,OVC,,0.00,181.5,WeatherDisplay:10.37,2013-08-06 12:06:00,
2013-08-06 14:11:00,92.7,60.2,29.97,East,90,2.6,2.6,34,0.00,OVC,,0.00,180.5,WeatherDisplay:10.37,2013-08-06 12:11:00,
2013-08-06 14:16:00,93.0,60.5,29.97,ESE,112,5.8,5.8,34,0.00,OVC,,0.00,179.4,WeatherDisplay:10.37,2013-08-06 12:16:00,
2013-08-06 14:21:00,93.2,59.8,29.94,WSW,248,3.5,4.0,33,0.00,OVC,,0.00,178.5,WeatherDisplay:10.37,2013-08-06 12:21:00,
2013-08-06 14:26:00,93.4,59.1,29.94,NW,315,4.6,4.6,32,0.00,OVC,,0.00,177.4,WeatherDisplay:10.37,2013-08-06 12:26:00,
2013-08-06 14:31:00,93.6,60.1,29.94,West,270,5.8,5.8,33,0.00,OVC,,0.00,175.9,WeatherDisplay:10.37,2013-08-06 12:31:00,
2013-08-06 14:36:00,93.6,59.3,29.97,ESE,112,4.7,4.7,32,0.00,OVC,,0.00,174.9,WeatherDisplay:10.37,2013-08-06 12:36:00,
2013-08-06 14:41:00,93.9,60.4,29.97,ESE,112,3.8,3.8,33,0.00,OVC,,0.00,173.6,WeatherDisplay:10.37,2013-08-06 12:41:00,
2013-08-06 14:46:00,94.3,60.8,29.97,ENE,68,3.5,3.5,33,0.00,OVC,,0.00,171.9,WeatherDisplay:10.37,2013-08-06 12:46:00,
2013-08-06 14:51:00,95.0,59.6,29.97,WSW,248,2.6,2.6,31,0.00,OVC,,0.00,170.8,WeatherDisplay:10.37,2013-08-06 12:51:00,
2013-08-06 14:56:00,95.7,60.2,29.97,ENE,68,1.2,1.2,31,0.00,OVC,,0.00,169.0,WeatherDisplay:10.37,2013-08-06 12:56:00,
2013-08-06 15:01:00,96.3,60.7,29.97,SSE,158,2.3,2.4,31,0.00,OVC,,0.00,167.6,WeatherDisplay:10.37,2013-08-06 13:01:00,
2013-08-06 15:06:00,96.8,60.3,29.97,SSW,202,5.8,5.8,30,0.00,OVC,,0.00,166.0,WeatherDisplay:10.37,2013-08-06 13:06:00,
2013-08-06 15:11:00,97.5,60.9,29.97,WNW,292,3.5,3.5,30,0.00,OVC,,0.00,164.2,WeatherDisplay:10.37,2013-08-06 13:11:00,
2013-08-06 15:16:00,98.4,60.7,29.97,SSE,158,3.6,3.6,29,0.00,OVC,,0.00,162.5,WeatherDisplay:10.37,2013-08-06 13:16:00,
2013-08-06 15:21:00,98.8,61.0,29.97,WNW,292,4.6,4.6,29,0.00,OVC,,0.00,160.7,WeatherDisplay:10.37,2013-08-06 13:21:00,
2013-08-06 15:26:00,99.1,61.3,29.97,SSE,158,3.6,3.6,29,0.00,OVC,,0.00,158.4,WeatherDisplay:10.37,2013-08-06 13:26:00,
2013-08-06 15:31:00,99.5,60.6,29.97,West,270,6.9,6.9,28,0.00,OVC,,0.00,156.8,WeatherDisplay:10.37,2013-08-06 13:31:00,
2013-08-06 15:36:00,99.7,60.8,29.94,SSW,202,5.8,5.8,28,0.00,OVC,,0.00,154.8,WeatherDisplay:10.37,2013-08-06 13:36:00,
2013-08-06 15:41:00,100.0,61.1,29.94,ESE,112,2.6,2.6,28,0.00,OVC,,0.00,152.8,WeatherDisplay:10.37,2013-08-06 13:41:00,
2013-08-06 15:46:00,100.0,60.1,29.94,ESE,112,5.8,5.8,27,0.00,OVC,,0.00,150.6,WeatherDisplay:10.37,2013-08-06 13:46:00,
2013-08-06 15:51:00,100.4,59.3,29.94,ESE,112,3.8,3.8,26,0.00,OVC,,0.00,148.2,WeatherDisplay:10.37,2013-08-06 13:51:00,
2013-08-06 15:56:00,100.4,59.3,29.94,SW,225,2.4,2.4,26,0.00,OVC,,0.00,146.4,WeatherDisplay:10.37,2013-08-06 13:56:00,
2013-08-06 16:01:00,100.8,59.6,29.94,WNW,292,3.5,3.5,26,0.00,OVC,,0.00,144.0,WeatherDisplay:10.37,2013-08-06 14:01:00,
2013-08-06 16:06:00,100.9,59.8,29.94,ESE,112,5.8,5.8,26,0.00,OVC,,0.00,141.9,WeatherDisplay:10.37,2013-08-06 14:06:00,
2013-08-06 16:11:00,100.9,59.8,29.94,West,270,2.3,0.0,26,0.00,OVC,,0.00,139.6,WeatherDisplay:10.37,2013-08-06 14:11:00,
2013-08-06 16:16:00,100.9,59.8,29.94,SSW,202,3.5,3.5,26,0.00,OVC,,0.00,137.1,WeatherDisplay:10.37,2013-08-06 14:16:00,
2013-08-06 16:21:00,100.9,59.8,29.94,ESE,112,2.4,2.4,26,0.00,OVC,,0.00,134.3,WeatherDisplay:10.37,2013-08-06 14:21:00,
2013-08-06 16:26:00,101.1,58.8,29.94,ENE,68,5.8,5.8,25,0.00,OVC,,0.00,132.3,WeatherDisplay:10.37,2013-08-06 14:26:00,
2013-08-06 16:31:00,101.3,60.1,29.94,ESE,112,2.4,2.4,26,0.00,OVC,,0.00,129.4,WeatherDisplay:10.37,2013-08-06 14:31:00,
2013-08-06 16:36:00,100.9,59.8,29.94,SSW,202,2.3,2.3,26,0.00,OVC,,0.00,126.9,WeatherDisplay:10.37,2013-08-06 14:36:00,
2013-08-06 16:41:00,99.9,58.8,29.94,WSW,248,2.3,2.3,26,0.00,OVC,,0.00,124.7,WeatherDisplay:10.37,2013-08-06 14:41:00,
2013-08-06 16:46:00,99.0,58.1,29.94,ESE,112,2.3,2.3,26,0.00,OVC,,0.00,121.8,WeatherDisplay:10.37,2013-08-06 14:46:00,
2013-08-06 16:51:00,98.8,57.9,29.94,ENE,68,2.3,2.3,26,0.00,OVC,,0.00,119.6,WeatherDisplay:10.37,2013-08-06 14:51:00,
2013-08-06 16:56:00,99.0,58.1,29.94,ENE,68,2.3,2.3,26,0.00,OVC,,0.00,116.5,WeatherDisplay:10.37,2013-08-06 14:56:00,
2013-08-06 17:01:00,98.8,57.9,29.94,SW,225,4.6,4.6,26,0.00,OVC,,0.00,114.3,WeatherDisplay:10.37,2013-08-06 15:01:00,
2013-08-06 17:06:00,98.4,58.7,29.94,ENE,68,2.3,2.3,27,0.00,OVC,,0.00,111.5,WeatherDisplay:10.37,2013-08-06 15:06:00,
2013-08-06 17:11:00,97.9,58.2,29.94,SSW,202,3.5,3.5,27,0.00,OVC,,0.00,108.4,WeatherDisplay:10.37,2013-08-06 15:11:00,
2013-08-06 17:16:00,97.2,57.6,29.94,SSE,158,2.3,2.3,27,0.00,OVC,,0.00,106.3,WeatherDisplay:10.37,2013-08-06 15:16:00,
2013-08-06 17:21:00,96.4,57.0,29.94,West,270,2.3,2.3,27,0.00,OVC,,0.00,103.5,WeatherDisplay:10.37,2013-08-06 15:21:00,
2013-08-06 17:26:00,96.4,57.0,29.94,WSW,248,2.3,0.0,27,0.00,OVC,,0.00,100.2,WeatherDisplay:10.37,2013-08-06 15:26:00,
2013-08-06 17:31:00,96.3,56.8,29.94,WSW,248,4.6,4.6,27,0.00,OVC,,0.00,97.8,WeatherDisplay:10.37,2013-08-06 15:31:00,
2013-08-06 17:36:00,95.9,56.5,29.91,ESE,112,3.5,3.5,27,0.00,OVC,,0.00,95.2,WeatherDisplay:10.37,2013-08-06 15:36:00,
2013-08-06 17:41:00,95.4,56.1,29.91,ENE,68,4.6,4.6,27,0.00,OVC,,0.00,92.4,WeatherDisplay:10.37,2013-08-06 15:41:00,
2013-08-06 17:46:00,94.6,56.5,29.91,ESE,112,4.6,4.6,28,0.00,OVC,,0.00,88.9,WeatherDisplay:10.37,2013-08-06 15:46:00,
2013-08-06 17:51:00,94.1,56.0,29.91,ESE,112,0.9,0.0,28,0.00,OVC,,0.00,86.8,WeatherDisplay:10.37,2013-08-06 15:51:00,
2013-08-06 17:56:00,93.4,55.4,29.91,WSW,248,2.3,2.3,28,0.00,OVC,,0.00,83.3,WeatherDisplay:10.37,2013-08-06 15:56:00,
2013-08-06 18:01:00,92.7,55.8,29.91,SSW,202,3.5,3.5,29,0.00,OVC,,0.00,80.5,WeatherDisplay:10.37,2013-08-06 16:01:00,
2013-08-06 18:06:00,92.3,55.4,29.91,WSW,248,3.5,3.5,29,0.00,OVC,,0.00,78.2,WeatherDisplay:10.37,2013-08-06 16:06:00,
2013-08-06 18:11:00,91.8,55.9,29.91,SSW,202,3.3,3.3,30,0.00,OVC,,0.00,75.4,WeatherDisplay:10.37,2013-08-06 16:11:00,
2013-08-06 18:16:00,91.2,55.5,29.91,SSW,202,1.2,1.6,30,0.00,OVC,,0.00,72.6,WeatherDisplay:10.37,2013-08-06 16:16:00,
2013-08-06 18:21:00,90.5,55.7,29.91,SSW,202,2.6,2.6,31,0.00,OVC,,0.00,69.6,WeatherDisplay:10.37,2013-08-06 16:21:00,
2013-08-06 18:26:00,90.0,55.3,29.91,SSW,202,1.6,1.6,31,0.00,OVC,,0.00,66.8,WeatherDisplay:10.37,2013-08-06 16:26:00,
2013-08-06 18:31:00,89.4,55.7,29.91,SW,225,2.3,2.3,32,0.00,OVC,,0.00,64.0,WeatherDisplay:10.37,2013-08-06 16:31:00,
2013-08-06 18:36:00,89.1,55.4,29.91,SSE,158,2.3,2.3,32,0.00,OVC,,0.00,61.2,WeatherDisplay:10.37,2013-08-06 16:36:00,
2013-08-06 18:41:00,88.7,55.1,29.91,ESE,112,3.5,3.5,32,0.00,OVC,,0.00,58.4,WeatherDisplay:10.37,2013-08-06 16:41:00,
2013-08-06 18:46:00,88.5,54.9,29.91,WSW,248,1.2,1.2,32,0.00,OVC,,0.00,55.6,WeatherDisplay:10.37,2013-08-06 16:46:00,
2013-08-06 18:51:00,88.3,54.7,29.91,East,90,2.3,2.3,32,0.00,OVC,,0.00,52.3,WeatherDisplay:10.37,2013-08-06 16:51:00,
2013-08-06 18:56:00,88.2,55.4,29.91,SSW,202,3.5,3.5,33,0.00,OVC,,0.00,49.5,WeatherDisplay:10.37,2013-08-06 16:56:00,
2013-08-06 19:01:00,88.0,55.3,29.91,WSW,248,2.3,2.3,33,0.00,OVC,,0.00,46.7,WeatherDisplay:10.37,2013-08-06 17:01:00,
2013-08-06 19:06:00,88.0,56.1,29.91,NE,45,2.4,2.4,34,0.00,OVC,,0.00,43.9,WeatherDisplay:10.37,2013-08-06 17:06:00,
2013-08-06 19:11:00,87.8,55.9,29.91,SSW,202,2.3,2.3,34,0.00,OVC,,0.00,41.3,WeatherDisplay:10.37,2013-08-06 17:11:00,
2013-08-06 19:16:00,87.8,55.9,29.91,SSE,158,2.3,2.3,34,0.00,OVC,,0.00,38.4,WeatherDisplay:10.37,2013-08-06 17:16:00,
2013-08-06 19:21:00,87.6,56.6,29.91,West,270,1.2,1.2,35,0.00,OVC,,0.00,35.8,WeatherDisplay:10.37,2013-08-06 17:21:00,
2013-08-06 19:27:00,87.4,56.4,29.91,WNW,292,1.2,0.0,35,0.00,OVC,,0.00,33.2,WeatherDisplay:10.37,2013-08-06 17:27:00,
2013-08-06 19:28:00,87.4,56.4,29.91,WNW,292,2.3,2.3,35,0.00,OVC,,0.00,32.7,WeatherDisplay:10.37,2013-08-06 17:28:00,
2013-08-06 19:33:00,87.3,56.3,29.91,SSW,202,2.0,0.0,35,0.00,OVC,,0.00,30.0,WeatherDisplay:10.37,2013-08-06 17:33:00,
2013-08-06 19:38:00,87.1,56.1,29.91,SSW,202,1.2,1.4,35,0.00,OVC,,0.00,27.4,WeatherDisplay:10.37,2013-08-06 17:38:00,
2013-08-06 19:43:00,86.9,56.0,29.91,WSW,248,0.0,0.0,35,0.00,OVC,,0.00,24.8,WeatherDisplay:10.37,2013-08-06 17:43:00,
2013-08-06 19:48:00,86.5,55.6,29.91,WSW,248,1.4,1.4,35,0.00,OVC,,0.00,22.1,WeatherDisplay:10.37,2013-08-06 17:48:00,
2013-08-06 19:53:00,86.4,56.3,29.91,South,180,2.3,0.0,36,0.00,OVC,,0.00,19.6,WeatherDisplay:10.37,2013-08-06 17:53:00,
2013-08-06 19:58:00,86.0,55.9,29.91,WNW,292,0.0,0.0,36,0.00,OVC,,0.00,17.0,WeatherDisplay:10.37,2013-08-06 17:58:00,
2013-08-06 20:03:00,85.5,56.2,29.91,South,180,0.0,0.0,37,0.00,OVC,,0.00,14.5,WeatherDisplay:10.37,2013-08-06 18:03:00,
2013-08-06 20:08:00,85.1,55.9,29.94,SSW,202,1.2,0.0,37,0.00,OVC,,0.00,12.5,WeatherDisplay:10.37,2013-08-06 18:08:00,
2013-08-06 20:13:00,84.7,56.3,29.94,South,180,0.0,0.0,38,0.00,OVC,,0.00,9.6,WeatherDisplay:10.37,2013-08-06 18:13:00,
2013-08-06 20:18:00,84.2,55.8,29.94,WSW,248,0.0,0.0,38,0.00,OVC,,0.00,7.3,WeatherDisplay:10.37,2013-08-06 18:18:00,
2013-08-06 20:23:00,83.7,56.1,29.94,WSW,248,0.0,0.0,39,0.00,OVC,,0.00,4.8,WeatherDisplay:10.37,2013-08-06 18:23:00,
2013-08-06 20:28:00,83.3,55.8,29.94,WSW,248,0.0,0.0,39,0.00,OVC,,0.00,2.5,WeatherDisplay:10.37,2013-08-06 18:28:00,
2013-08-06 20:33:00,82.9,56.1,29.94,WSW,248,0.0,0.0,40,0.00,OVC,,0.00,0.7,WeatherDisplay:10.37,2013-08-06 18:33:00,
2013-08-06 20:38:00,82.4,55.7,29.94,ESE,112,2.3,0.0,40,0.00,OVC,,0.00,0.7,WeatherDisplay:10.37,2013-08-06 18:38:00,
2013-08-06 20:43:00,82.0,55.3,29.94,WNW,292,0.0,0.0,40,0.00,CLR,,0.00,0.0,WeatherDisplay:10.37,2013-08-06 18:43:00,
2013-08-06 20:48:00,81.7,55.7,29.94,WSW,248,0.0,0.0,41,0.00,CLR,,0.00,0.0,WeatherDisplay:10.37,2013-08-06 18:48:00,
2013-08-06 20:53:00,81.3,55.4,29.94,WSW,248,0.0,0.0,41,0.00,CLR,,0.00,0.0,WeatherDisplay:10.37,2013-08-06 18:53:00,
2013-08-06 20:58:00,81.0,55.0,29.94,SSW,202,0.0,0.0,41,0.00,CLR,,0.00,0.0,WeatherDisplay:10.37,2013-08-06 18:58:00,
2013-08-06 21:03:00,80.6,54.7,29.94,SSW,202,0.0,0.0,41,0.00,CLR,,0.00,0.0,WeatherDisplay:10.37,2013-08-06 19:03:00,
2013-08-06 21:08:00,80.4,55.2,29.94,SSW,202,0.0,0.0,42,0.00,CLR,,0.00,0.0,WeatherDisplay:10.37,2013-08-06 19:08:00,
2013-08-06 21:13:00,80.1,54.9,29.94,ESE,112,0.0,0.0,42,0.00,CLR,,0.00,0.0,WeatherDisplay:10.37,2013-08-06 19:13:00,
2013-08-06 21:18:00,79.7,55.2,29.94,ESE,112,0.0,0.0,43,0.00,CLR,,0.00,0.0,WeatherDisplay:10.37,2013-08-06 19:18:00,
2013-08-06 21:23:00,79.3,54.9,29.94,ESE,112,0.0,0.0,43,0.00,CLR,,0.00,0.0,WeatherDisplay:10.37,2013-08-06 19:23:00,
2013-08-06 21:28:00,79.2,55.4,29.94,ESE,112,0.0,0.0,44,0.00,CLR,,0.00,0.0,WeatherDisplay:10.37,2013-08-06 19:28:00,
2013-08-06 21:33:00,78.8,55.0,29.94,ESE,112,0.0,0.0,44,0.00,CLR,,0.00,0.0,WeatherDisplay:10.37,2013-08-06 19:33:00,
2013-08-06 21:38:00,78.6,55.5,29.94,ENE,68,0.0,0.0,45,0.00,CLR,,0.00,0.0,WeatherDisplay:10.37,2013-08-06 19:38:00,
2013-08-06 21:43:00,78.3,55.2,29.94,ENE,68,0.0,0.0,45,0.00,CLR,,0.00,0.0,WeatherDisplay:10.37,2013-08-06 19:43:00,
2013-08-06 21:48:00,78.1,55.0,29.94,ENE,68,0.0,0.0,45,0.00,CLR,,0.00,0.0,WeatherDisplay:10.37,2013-08-06 19:48:00,
2013-08-06 21:53:00,77.7,55.3,29.94,ENE,68,0.0,0.0,46,0.00,CLR,,0.00,0.0,WeatherDisplay:10.37,2013-08-06 19:53:00,
2013-08-06 21:58:00,77.5,55.1,29.94,ENE,68,0.0,0.0,46,0.00,CLR,,0.00,0.0,WeatherDisplay:10.37,2013-08-06 19:58:00,
2013-08-06 22:03:00,77.4,55.6,29.94,ENE,68,0.0,0.0,47,0.00,CLR,,0.00,0.0,WeatherDisplay:10.37,2013-08-06 20:03:00,
2013-08-06 22:08:00,77.0,55.8,29.94,SSW,202,0.0,0.0,48,0.00,CLR,,0.00,0.0,WeatherDisplay:10.37,2013-08-06 20:08:00,
2013-08-06 22:13:00,76.8,55.6,29.94,SSW,202,0.0,0.0,48,0.00,CLR,,0.00,0.0,WeatherDisplay:10.37,2013-08-06 20:13:00,
2013-08-06 22:18:00,76.6,56.0,29.94,SW,225,0.0,0.0,49,0.00,CLR,,0.00,0.0,WeatherDisplay:10.37,2013-08-06 20:18:00,
2013-08-06 22:23:00,76.3,55.7,29.97,WSW,248,0.0,0.0,49,0.00,CLR,,0.00,0.0,WeatherDisplay:10.37,2013-08-06 20:23:00,
2013-08-06 22:28:00,76.1,55.5,29.97,SSE,158,0.0,0.0,49,0.00,CLR,,0.00,0.0,WeatherDisplay:10.37,2013-08-06 20:28:00,
2013-08-06 22:32:00,76.1,55.5,29.97,SSE,158,0.0,0.0,49,0.00,CLR,,0.00,0.0,WeatherDisplay:10.37,2013-08-06 20:32:00,
2013-08-06 22:37:00,75.7,55.8,29.97,SSE,158,0.0,0.0,50,0.00,CLR,,0.00,0.0,WeatherDisplay:10.37,2013-08-06 20:37:00,
2013-08-06 22:42:00,75.6,55.6,29.97,SSE,158,0.0,0.0,50,0.00,CLR,,0.00,0.0,WeatherDisplay:10.37,2013-08-06 20:42:00,
2013-08-06 22:47:00,75.4,54.9,29.97,SSE,158,0.0,0.0,49,0.00,CLR,,0.00,0.0,WeatherDisplay:10.37,2013-08-06 20:47:00,
2013-08-06 22:52:00,75.4,54.9,29.97,SSE,158,0.0,0.0,49,0.00,CLR,,0.00,0.0,WeatherDisplay:10.37,2013-08-06 20:52:00,
2013-08-06 22:57:00,75.2,54.7,29.97,SSE,158,0.0,0.0,49,0.00,CLR,,0.00,0.0,WeatherDisplay:10.37,2013-08-06 20:57:00,
2013-08-06 23:02:00,75.0,55.1,29.97,SSE,158,0.0,0.0,50,0.00,CLR,,0.00,0.0,WeatherDisplay:10.37,2013-08-06 21:02:00,
2013-08-06 23:07:00,74.8,54.9,29.97,SSE,158,0.0,0.0,50,0.00,CLR,,0.00,0.0,WeatherDisplay:10.37,2013-08-06 21:07:00,
2013-08-06 23:12:00,74.7,54.8,29.97,SSE,158,0.0,0.0,50,0.00,CLR,,0.00,0.0,WeatherDisplay:10.37,2013-08-06 21:12:00,
2013-08-06 23:17:00,74.7,54.8,29.97,SSE,158,0.0,0.0,50,0.00,CLR,,0.00,0.0,WeatherDisplay:10.37,2013-08-06 21:17:00,
2013-08-06 23:22:00,74.5,54.6,29.97,ENE,68,0.0,0.0,50,0.00,CLR,,0.00,0.0,WeatherDisplay:10.37,2013-08-06 21:22:00,
2013-08-06 23:27:00,74.3,54.5,29.97,SSW,202,0.0,0.0,50,0.00,CLR,,0.00,0.0,WeatherDisplay:10.37,2013-08-06 21:27:00,
2013-08-06 23:32:00,74.1,54.3,29.97,SSW,202,0.0,0.0,50,0.00,CLR,,0.00,0.0,WeatherDisplay:10.37,2013-08-06 21:32:00,
2013-08-06 23:37:00,74.1,54.3,29.97,SSW,202,0.0,0.0,50,0.00,CLR,,0.00,0.0,WeatherDisplay:10.37,2013-08-06 21:37:00,
2013-08-06 23:42:00,73.9,54.1,29.97,SSW,202,0.0,0.0,50,0.00,CLR,,0.00,0.0,WeatherDisplay:10.37,2013-08-06 21:42:00,
2013-08-06 23:47:00,73.9,54.7,29.97,SSW,202,0.0,0.0,51,0.00,CLR,,0.00,0.0,WeatherDisplay:10.37,2013-08-06 21:47:00,
2013-08-06 23:52:00,73.8,55.0,29.97,SSW,202,0.0,0.0,52,0.00,CLR,,0.00,0.0,WeatherDisplay:10.37,2013-08-06 21:52:00,
2013-08-06 23:57:00,73.6,54.9,29.97,SSW,202,0.0,0.0,52,0.00,CLR,,0.00,0.0,WeatherDisplay:10.37,2013-08-06 21:57:00,